Time,TemperatureF,DewpointF,PressureIn,WindDirection,WindDirectionDegrees,WindSpeedMPH,WindSpeedGustMPH,Humidity,HourlyPrecipIn,Conditions,Clouds,dailyrainin,SoftwareType,DateUTC
2013-03-13 00:29:00,41.0,14.0,30.24,NNE,22,0.0,0.0,33,0.00,,,0.00,WUHU21623XXSP,2013-03-13 07:29:00,
2013-03-13 00:40:00,40.6,13.6,30.25,East,90,0.0,0.0,33,0.00,,,0.00,WUHU21623XXSP,2013-03-13 07:40:00,
2013-03-13 00:48:00,40.1,13.8,30.25,ESE,112,0.0,0.0,34,0.00,,,0.00,WUHU21623XXSP,2013-03-13 07:48:00,
2013-03-13 00:57:00,39.9,13.6,30.25,ESE,112,0.0,0.0,34,0.00,,,0.00,WUHU21623XXSP,2013-03-13 07:57:00,
2013-03-13 00:58:00,39.9,13.6,30.25,ESE,112,0.0,0.0,34,0.00,,,0.00,WUHU21623XXSP,2013-03-13 07:58:00,
2013-03-13 01:03:00,39.9,13.6,30.25,ESE,112,0.0,0.0,34,0.00,,,0.00,WUHU21623XXSP,2013-03-13 08:03:00,
2013-03-13 01:08:00,39.4,13.8,30.24,ENE,67,0.0,0.0,35,0.00,,,0.00,WUHU21623XXSP,2013-03-13 08:08:00,
2013-03-13 01:13:00,39.4,13.8,30.25,ENE,67,0.0,0.0,35,0.00,,,0.00,WUHU21623XXSP,2013-03-13 08:13:00,
2013-03-13 01:35:00,38.5,13.0,30.24,East,90,0.0,0.0,35,0.00,,,0.00,WUHU21623XXSP,2013-03-13 08:35:00,
2013-03-13 01:52:00,37.9,13.2,30.24,ENE,67,0.0,0.0,36,0.00,,,0.00,WUHU21623XXSP,2013-03-13 08:52:00,
2013-03-13 01:57:00,37.9,13.2,30.24,ENE,67,0.0,0.0,36,0.00,,,0.00,WUHU21623XXSP,2013-03-13 08:57:00,
2013-03-13 02:02:00,37.4,12.7,30.24,ENE,67,0.0,0.0,36,0.00,,,0.00,WUHU21623XXSP,2013-03-13 09:02:00,
2013-03-13 02:07:00,37.2,12.5,30.25,ENE,67,0.0,0.0,36,0.00,,,0.00,WUHU21623XXSP,2013-03-13 09:07:00,
2013-03-13 02:12:00,37.0,12.3,30.24,ENE,67,0.0,0.0,36,0.00,,,0.00,WUHU21623XXSP,2013-03-13 09:12:00,
2013-03-13 02:18:00,36.7,12.7,30.25,ENE,67,0.0,0.0,37,0.00,,,0.00,WUHU21623XXSP,2013-03-13 09:18:00,
2013-03-13 02:26:00,36.3,12.3,30.24,ENE,67,0.0,0.0,37,0.00,,,0.00,WUHU21623XXSP,2013-03-13 09:26:00,
2013-03-13 02:38:00,36.1,12.2,30.24,NE,45,0.0,0.0,37,0.00,,,0.00,WUHU21623XXSP,2013-03-13 09:38:00,
2013-03-13 02:46:00,35.8,12.5,30.23,NE,45,0.0,0.0,38,0.00,,,0.00,WUHU21623XXSP,2013-03-13 09:46:00,
2013-03-13 02:57:00,35.4,12.2,30.24,NE,45,0.0,0.0,38,0.00,,,0.00,WUHU21623XXSP,2013-03-13 09:57:00,
2013-03-13 03:02:00,35.4,12.2,30.24,NE,45,0.0,0.0,38,0.00,,,0.00,WUHU21623XXSP,2013-03-13 10:02:00,
2013-03-13 03:22:00,34.9,12.3,30.23,East,90,0.0,0.0,39,0.00,,,0.00,WUHU21623XXSP,2013-03-13 10:22:00,
2013-03-13 03:35:00,34.7,12.2,30.23,East,90,0.0,0.0,39,0.00,,,0.00,WUHU21623XXSP,2013-03-13 10:35:00,
2013-03-13 03:42:00,34.5,12.7,30.23,East,90,0.0,0.0,40,0.00,,,0.00,WUHU21623XXSP,2013-03-13 10:42:00,
2013-03-13 03:47:00,34.3,12.5,30.24,NE,45,0.0,0.0,40,0.00,,,0.00,WUHU21623XXSP,2013-03-13 10:47:00,
2013-03-13 03:58:00,34.2,12.3,30.23,ENE,67,0.0,0.0,40,0.00,,,0.00,WUHU21623XXSP,2013-03-13 10:58:00,
2013-03-13 04:03:00,34.2,12.3,30.23,ENE,67,0.0,0.0,40,0.00,,,0.00,WUHU21623XXSP,2013-03-13 11:03:00,
2013-03-13 04:22:00,33.3,12.7,30.23,SE,135,0.0,0.0,42,0.00,,,0.00,WUHU21623XXSP,2013-03-13 11:22:00,
2013-03-13 04:58:00,32.5,11.9,30.23,WNW,292,0.0,0.0,42,0.00,,,0.00,WUHU21623XXSP,2013-03-13 11:58:00,
2013-03-13 05:03:00,32.5,11.9,30.23,WNW,292,0.0,0.0,42,0.00,,,0.00,WUHU21623XXSP,2013-03-13 12:03:00,
2013-03-13 05:09:00,32.2,11.6,30.23,SSE,157,0.0,0.0,42,0.00,,,0.00,WUHU21623XXSP,2013-03-13 12:09:00,
2013-03-13 05:16:00,31.8,11.8,30.24,SSE,157,0.0,0.0,43,0.00,,,0.00,WUHU21623XXSP,2013-03-13 12:16:00,
2013-03-13 05:28:00,31.6,11.6,30.24,WNW,292,0.0,0.0,43,0.00,,,0.00,WUHU21623XXSP,2013-03-13 12:28:00,
2013-03-13 05:39:00,31.1,11.3,30.25,WNW,292,0.0,0.0,43,0.00,,,0.00,WUHU21623XXSP,2013-03-13 12:39:00,
2013-03-13 05:46:00,31.1,11.6,30.25,NW,315,0.0,0.0,44,0.00,,,0.00,WUHU21623XXSP,2013-03-13 12:46:00,
2013-03-13 05:51:00,30.9,11.4,30.24,NW,315,0.0,0.0,44,0.00,,,0.00,WUHU21623XXSP,2013-03-13 12:51:00,
2013-03-13 05:58:00,30.7,11.3,30.24,NW,315,0.0,0.0,44,0.00,,,0.00,WUHU21623XXSP,2013-03-13 12:58:00,
2013-03-13 06:03:00,30.7,11.3,30.25,NW,315,0.0,0.0,44,0.00,,,0.00,WUHU21623XXSP,2013-03-13 13:03:00,
2013-03-13 06:50:00,29.7,11.8,30.26,NNW,337,0.0,0.0,47,0.00,,,0.00,WUHU21623XXSP,2013-03-13 13:50:00,
2013-03-13 06:58:00,29.7,12.3,30.26,South,180,0.0,0.0,48,0.00,,,0.00,WUHU21623XXSP,2013-03-13 13:58:00,
2013-03-13 07:03:00,29.5,12.2,30.26,ESE,112,0.0,0.0,48,0.00,,,0.00,WUHU21623XXSP,2013-03-13 14:03:00,
2013-03-13 07:08:00,29.3,12.0,30.26,SE,135,0.0,0.0,48,0.00,,,0.00,WUHU21623XXSP,2013-03-13 14:08:00,
2013-03-13 07:13:00,29.1,11.8,30.26,SW,225,0.0,0.0,48,0.00,,,0.00,WUHU21623XXSP,2013-03-13 14:13:00,
2013-03-13 07:29:00,28.8,12.0,30.26,SE,135,0.0,0.0,49,0.00,,,0.00,WUHU21623XXSP,2013-03-13 14:29:00,
2013-03-13 08:03:00,28.2,12.4,30.27,East,90,0.0,0.0,51,0.00,,,0.00,WUHU21623XXSP,2013-03-13 15:03:00,
2013-03-13 08:11:00,28.8,12.9,30.27,ESE,112,0.0,0.0,52,0.00,,,0.00,WUHU21623XXSP,2013-03-13 15:11:00,
2013-03-13 08:39:00,31.8,16.6,30.27,SSE,157,0.0,0.0,53,0.00,,,0.00,WUHU21623XXSP,2013-03-13 15:39:00,
2013-03-13 08:44:00,32.2,16.9,30.27,South,180,0.0,0.0,53,0.00,,,0.00,WUHU21623XXSP,2013-03-13 15:44:00,
2013-03-13 09:07:00,35.8,20.7,30.27,WSW,247,0.0,0.0,55,0.00,,,0.00,WUHU21623XXSP,2013-03-13 16:07:00,
2013-03-13 09:18:00,37.8,23.0,30.27,North,0,0.0,0.0,55,0.00,,,0.00,WUHU21623XXSP,2013-03-13 16:18:00,
2013-03-13 09:23:00,38.5,23.6,30.27,WSW,247,0.0,0.0,55,0.00,,,0.00,WUHU21623XXSP,2013-03-13 16:23:00,
2013-03-13 09:43:00,43.7,28.1,30.27,West,270,0.0,0.0,54,0.00,,,0.00,WUHU21623XXSP,2013-03-13 16:43:00,
2013-03-13 09:58:00,47.8,31.0,30.27,SSW,202,0.0,0.0,52,0.00,,,0.00,WUHU21623XXSP,2013-03-13 16:58:00,
2013-03-13 10:03:00,48.7,31.4,30.27,West,270,0.0,0.0,51,0.00,,,0.00,WUHU21623XXSP,2013-03-13 17:03:00,
2013-03-13 10:22:00,52.7,33.5,30.27,SSW,202,0.0,0.0,48,0.00,,,0.00,WUHU21623XXSP,2013-03-13 17:22:00,
2013-03-13 10:43:00,57.0,35.2,30.26,NNE,22,0.0,0.0,44,0.00,,,0.00,WUHU21623XXSP,2013-03-13 17:43:00,
2013-03-13 11:03:00,59.2,35.4,30.26,ENE,67,0.0,0.0,41,0.00,,,0.00,WUHU21623XXSP,2013-03-13 18:03:00,
2013-03-13 11:35:00,62.8,36.7,30.25,East,90,0.0,0.0,38,0.00,,,0.00,WUHU21623XXSP,2013-03-13 18:35:00,
2013-03-13 11:40:00,63.1,36.3,30.25,ENE,67,0.0,0.0,37,0.00,,,0.00,WUHU21623XXSP,2013-03-13 18:40:00,
2013-03-13 11:50:00,64.0,36.4,30.25,WNW,292,0.9,0.9,36,0.00,,,0.00,WUHU21623XXSP,2013-03-13 18:50:00,
2013-03-13 11:58:00,64.9,36.4,30.25,SE,135,0.0,0.9,35,0.00,,,0.00,WUHU21623XXSP,2013-03-13 18:58:00,
2013-03-13 12:03:00,65.5,36.2,30.25,SSW,202,0.0,0.0,34,0.00,,,0.00,WUHU21623XXSP,2013-03-13 19:03:00,
2013-03-13 12:15:00,67.6,37.3,30.24,South,180,0.0,0.0,33,0.00,,,0.00,WUHU21623XXSP,2013-03-13 19:15:00,
2013-03-13 12:24:00,68.5,37.4,30.23,North,0,0.0,0.0,32,0.00,,,0.00,WUHU21623XXSP,2013-03-13 19:24:00,
2013-03-13 12:52:00,73.2,38.9,30.22,SSE,157,0.0,0.0,29,0.00,,,0.00,WUHU21623XXSP,2013-03-13 19:52:00,
2013-03-13 13:05:00,75.2,37.6,30.22,NNW,337,0.0,0.0,26,0.00,,,0.00,WUHU21623XXSP,2013-03-13 20:05:00,
2013-03-13 13:19:00,76.3,36.5,30.22,SE,135,0.0,0.0,24,0.00,,,0.00,WUHU21623XXSP,2013-03-13 20:19:00,
2013-03-13 13:37:00,77.2,35.9,30.21,NNW,337,0.0,0.0,23,0.00,,,0.00,WUHU21623XXSP,2013-03-13 20:37:00,
2013-03-13 13:49:00,78.1,34.8,30.21,ESE,112,0.0,0.0,21,0.00,,,0.00,WUHU21623XXSP,2013-03-13 20:49:00,
2013-03-13 14:02:00,78.6,34.2,30.20,NNE,22,0.0,0.0,20,0.00,,,0.00,WUHU21623XXSP,2013-03-13 21:02:00,
2013-03-13 14:07:00,78.6,34.2,30.20,SSW,202,0.0,0.0,20,0.00,,,0.00,WUHU21623XXSP,2013-03-13 21:07:00,
2013-03-13 14:12:00,78.8,34.3,30.20,WNW,292,0.0,0.0,20,0.00,,,0.00,WUHU21623XXSP,2013-03-13 21:12:00,
2013-03-13 14:43:00,78.1,28.8,30.19,NE,45,0.0,0.0,18,0.00,,,0.00,WUHU21623XXSP,2013-03-13 21:43:00,
2013-03-13 15:06:00,78.4,29.0,30.18,NNE,22,0.0,0.0,17,0.00,,,0.00,WUHU21623XXSP,2013-03-13 22:06:00,
2013-03-13 15:34:00,78.1,28.8,30.18,SSW,202,3.8,3.8,17,0.00,,,0.00,WUHU21623XXSP,2013-03-13 22:34:00,
2013-03-13 15:43:00,77.7,28.5,30.18,West,270,0.0,3.8,17,0.00,,,0.00,WUHU21623XXSP,2013-03-13 22:43:00,
2013-03-13 15:49:00,77.5,28.3,30.18,NW,315,0.9,0.9,17,0.00,,,0.00,WUHU21623XXSP,2013-03-13 22:49:00,
2013-03-13 15:54:00,77.2,26.5,30.18,NW,315,0.0,0.9,16,0.00,,,0.00,WUHU21623XXSP,2013-03-13 22:54:00,
2013-03-13 16:02:00,77.0,26.3,30.18,SW,225,0.0,0.0,16,0.00,,,0.00,WUHU21623XXSP,2013-03-13 23:02:00,
2013-03-13 16:19:00,75.9,25.4,30.18,West,270,0.0,0.0,16,0.00,,,0.00,WUHU21623XXSP,2013-03-13 23:19:00,
2013-03-13 16:29:00,75.6,26.8,30.18,SSE,157,0.0,0.0,17,0.00,,,0.00,WUHU21623XXSP,2013-03-13 23:29:00,
2013-03-13 16:42:00,75.0,26.3,30.18,West,270,6.7,6.7,17,0.00,,,0.00,WUHU21623XXSP,2013-03-13 23:42:00,
2013-03-13 16:51:00,75.0,26.3,30.18,NW,315,0.0,6.7,17,0.00,,,0.00,WUHU21623XXSP,2013-03-13 23:51:00,
2013-03-13 17:14:00,74.8,26.2,30.18,SW,225,4.7,4.7,17,0.00,,,0.00,WUHU21623XXSP,2013-03-14 00:14:00,
2013-03-13 17:23:00,74.5,24.3,30.17,ESE,112,0.0,4.7,16,0.00,,,0.00,WUHU21623XXSP,2013-03-14 00:23:00,
2013-03-13 17:28:00,74.1,24.0,30.17,West,270,0.0,0.0,17,0.00,,,0.00,WUHU21623XXSP,2013-03-14 00:28:00,
2013-03-13 17:36:00,73.8,25.4,30.18,West,270,3.1,3.1,17,0.00,,,0.00,WUHU21623XXSP,2013-03-14 00:36:00,
2013-03-13 17:42:00,73.6,25.2,30.18,WNW,292,3.8,3.8,17,0.00,,,0.00,WUHU21623XXSP,2013-03-14 00:42:00,
2013-03-13 17:48:00,73.2,24.9,30.17,WNW,292,2.5,3.8,17,0.00,,,0.00,WUHU21623XXSP,2013-03-14 00:48:00,
2013-03-13 18:03:00,72.3,25.8,30.18,WNW,292,0.0,0.0,18,0.00,,,0.00,WUHU21623XXSP,2013-03-14 01:03:00,
2013-03-13 18:14:00,72.0,25.5,30.18,East,90,0.0,0.0,18,0.00,,,0.00,WUHU21623XXSP,2013-03-14 01:14:00,
2013-03-13 18:23:00,71.4,25.0,30.19,West,270,0.0,0.0,18,0.00,,,0.00,WUHU21623XXSP,2013-03-14 01:23:00,
2013-03-13 18:33:00,71.2,24.9,30.19,SW,225,0.0,0.0,18,0.00,,,0.00,WUHU21623XXSP,2013-03-14 01:33:00,
2013-03-13 18:42:00,70.9,24.6,30.19,NW,315,0.0,0.0,18,0.00,,,0.00,WUHU21623XXSP,2013-03-14 01:42:00,
2013-03-13 18:47:00,70.3,24.2,30.19,North,0,0.0,0.0,18,0.00,,,0.00,WUHU21623XXSP,2013-03-14 01:47:00,
2013-03-13 18:52:00,70.0,24.2,30.19,NNE,22,0.0,0.0,18,0.00,,,0.00,WUHU21623XXSP,2013-03-14 01:52:00,
2013-03-13 18:59:00,69.4,25.1,30.18,NNE,22,0.0,0.0,19,0.00,,,0.00,WUHU21623XXSP,2013-03-14 01:59:00,
2013-03-13 19:15:00,67.6,25.2,30.19,WSW,247,0.0,0.0,20,0.00,,,0.00,WUHU21623XXSP,2013-03-14 02:15:00,
2013-03-13 19:23:00,66.7,24.5,30.19,South,180,0.0,0.0,20,0.00,,,0.00,WUHU21623XXSP,2013-03-14 02:23:00,
2013-03-13 19:29:00,66.4,25.1,30.19,ESE,112,0.0,0.0,21,0.00,,,0.00,WUHU21623XXSP,2013-03-14 02:29:00,
2013-03-13 19:35:00,65.8,25.6,30.20,SE,135,0.0,0.0,22,0.00,,,0.00,WUHU21623XXSP,2013-03-14 02:35:00,
2013-03-13 19:40:00,65.5,25.3,30.19,ESE,112,0.0,0.0,22,0.00,,,0.00,WUHU21623XXSP,2013-03-14 02:40:00,
2013-03-13 19:59:00,63.3,22.6,30.20,NE,45,0.0,0.0,21,0.00,,,0.00,WUHU21623XXSP,2013-03-14 02:59:00,
2013-03-13 20:04:00,63.0,23.3,30.20,NNE,22,0.0,0.0,22,0.00,,,0.00,WUHU21623XXSP,2013-03-14 03:04:00,
2013-03-13 20:10:00,62.4,23.8,30.20,NE,45,0.0,0.0,23,0.00,,,0.00,WUHU21623XXSP,2013-03-14 03:10:00,
2013-03-13 20:16:00,61.7,23.2,30.20,ENE,67,0.0,0.0,23,0.00,,,0.00,WUHU21623XXSP,2013-03-14 03:16:00,
2013-03-13 20:22:00,61.0,23.0,30.21,ENE,67,0.0,0.0,23,0.00,,,0.00,WUHU21623XXSP,2013-03-14 03:22:00,
2013-03-13 20:27:00,60.1,22.1,30.21,East,90,0.0,0.0,22,0.00,,,0.00,WUHU21623XXSP,2013-03-14 03:27:00,
2013-03-13 20:44:00,58.1,21.1,30.21,SSE,157,0.0,0.0,24,0.00,,,0.00,WUHU21623XXSP,2013-03-14 03:44:00,
2013-03-13 21:01:00,56.5,20.7,30.22,NW,315,0.0,0.0,25,0.00,,,0.00,WUHU21623XXSP,2013-03-14 04:01:00,
2013-03-13 21:02:00,56.5,20.7,30.22,NW,315,0.0,0.0,25,0.00,,,0.00,WUHU21623XXSP,2013-03-14 04:02:00,
2013-03-13 21:14:00,55.6,20.8,30.22,ENE,67,0.0,0.0,26,0.00,,,0.00,WUHU21623XXSP,2013-03-14 04:14:00,
2013-03-13 21:22:00,55.0,20.4,30.22,ENE,67,0.0,0.0,26,0.00,,,0.00,WUHU21623XXSP,2013-03-14 04:22:00,
2013-03-13 21:46:00,53.8,21.2,30.22,NE,45,0.0,0.0,28,0.00,,,0.00,WUHU21623XXSP,2013-03-14 04:46:00,
2013-03-13 21:52:00,53.8,21.2,30.22,East,90,0.0,0.0,28,0.00,,,0.00,WUHU21623XXSP,2013-03-14 04:52:00,
2013-03-13 21:57:00,54.0,22.3,30.22,SE,135,0.0,0.0,29,0.00,,,0.00,WUHU21623XXSP,2013-03-14 04:57:00,
2013-03-13 22:03:00,54.0,22.3,30.23,ESE,112,0.0,0.0,29,0.00,,,0.00,WUHU21623XXSP,2013-03-14 05:03:00,
2013-03-13 22:08:00,54.0,22.3,30.22,East,90,0.0,0.0,29,0.00,,,0.00,WUHU21623XXSP,2013-03-14 05:08:00,
2013-03-13 22:16:00,53.8,22.2,30.22,SE,135,0.0,0.0,29,0.00,,,0.00,WUHU21623XXSP,2013-03-14 05:16:00,
2013-03-13 22:22:00,53.6,22.0,30.22,ESE,112,0.0,0.0,29,0.00,,,0.00,WUHU21623XXSP,2013-03-14 05:22:00,
2013-03-13 22:27:00,53.4,21.9,30.23,NW,315,0.0,0.0,29,0.00,,,0.00,WUHU21623XXSP,2013-03-14 05:27:00,
2013-03-13 22:42:00,52.9,22.4,30.23,SE,135,0.0,0.0,30,0.00,,,0.00,WUHU21623XXSP,2013-03-14 05:42:00,
2013-03-13 23:01:00,51.4,21.7,30.24,NNW,337,0.0,0.0,31,0.00,,,0.00,WUHU21623XXSP,2013-03-14 06:01:00,
2013-03-13 23:07:00,50.9,21.3,30.24,NNW,337,0.0,0.0,31,0.00,,,0.00,WUHU21623XXSP,2013-03-14 06:07:00,
2013-03-13 23:12:00,50.9,21.3,30.24,NNW,337,0.0,0.0,31,0.00,,,0.00,WUHU21623XXSP,2013-03-14 06:12:00,
2013-03-13 23:19:00,50.0,20.4,30.24,NNE,22,0.0,0.0,31,0.00,,,0.00,WUHU21623XXSP,2013-03-14 06:19:00,
2013-03-13 23:31:00,49.1,20.4,30.23,ENE,67,0.0,0.0,32,0.00,,,0.00,WUHU21623XXSP,2013-03-14 06:31:00,
2013-03-13 23:39:00,48.4,19.9,30.23,NE,45,0.0,0.0,32,0.00,,,0.00,WUHU21623XXSP,2013-03-14 06:39:00,
2013-03-13 23:46:00,48.2,19.7,30.23,ESE,112,0.0,0.0,32,0.00,,,0.00,WUHU21623XXSP,2013-03-14 06:46:00,